• In Austria
  • List of Countries
  • For 7 days
  • Water Temperature
  • Satellite Maps
  • Weather Map
  • News
  • Weather Widgets
  • user-avatar
    Login

    Hourly Weather Sapino

    Today, 22 September, Saturday

    Time Temperature Precipitation Wind Pressure Humidity
    00:00 +18°C° 0 mm 3 mps 753 mmHg 82%
    01:00 +18°C° 0 mm 4 mps 752 mmHg 80%
    02:00 +17°C° 0 mm 4 mps 752 mmHg 79%
    03:00 +17°C° 0 mm 4 mps 751 mmHg 77%
    04:00 +17°C° 0 mm 4 mps 751 mmHg 76%
    05:00 +16°C° 0 mm 5 mps 750 mmHg 75%
    06:00 +17°C° 0 mm 5 mps 750 mmHg 72%
    07:00 +17°C° 0 mm 5 mps 749 mmHg 68%
    08:00 +19°C° 0 mm 6 mps 749 mmHg 65%
    09:00 +20°C° 0 mm 6 mps 748 mmHg 61%
    10:00 +22°C° 0 mm 6 mps 748 mmHg 57%
    11:00 +23°C° 0 mm 6 mps 748 mmHg 52%
    12:00 +21°C° 0.4 mm 6 mps 748 mmHg 61%
    13:00 +19°C° 0.4 mm 5 mps 749 mmHg 70%
    14:00 +16°C° 0.4 mm 5 mps 749 mmHg 79%
    15:00 +15°C° 0.5 mm 4 mps 749 mmHg 83%
    16:00 +13°C° 0.5 mm 3 mps 750 mmHg 87%
    17:00 +12°C° 0.5 mm 3 mps 750 mmHg 91%
    18:00 +11°C° 0.5 mm 3 mps 750 mmHg 92%
    19:00 +11°C° 0.5 mm 3 mps 751 mmHg 93%
    20:00 +11°C° 0.5 mm 3 mps 751 mmHg 93%
    21:00 +11°C° 0.5 mm 3 mps 751 mmHg 92%
    22:00 +11°C° 0.5 mm 3 mps 751 mmHg 92%
    23:00 +11°C° 0.5 mm 3 mps 751 mmHg 91%

    Tomorrow, 23 September, Sunday

    Time Temperature Precipitation Wind Pressure Humidity
    00:00 +10°C° 0.1 mm 3 mps 751 mmHg 92%
    01:00 +10°C° 0.1 mm 3 mps 751 mmHg 92%
    02:00 +10°C° 0.1 mm 3 mps 751 mmHg 93%
    03:00 +9°C° 0 mm 3 mps 750 mmHg 94%
    04:00 +9°C° 0 mm 3 mps 750 mmHg 95%
    05:00 +8°C° 0 mm 3 mps 750 mmHg 96%
    06:00 +9°C° 0 mm 3 mps 750 mmHg 94%
    07:00 +9°C° 0 mm 3 mps 749 mmHg 92%
    08:00 +10°C° 0 mm 4 mps 749 mmHg 89%
    09:00 +10°C° 0 mm 4 mps 749 mmHg 84%
    10:00 +11°C° 0 mm 4 mps 749 mmHg 79%
    11:00 +12°C° 0 mm 5 mps 748 mmHg 73%
    12:00 +13°C° 0.1 mm 5 mps 748 mmHg 69%
    13:00 +14°C° 0.1 mm 5 mps 748 mmHg 65%
    14:00 +14°C° 0.1 mm 5 mps 748 mmHg 61%
    15:00 +13°C° 0.2 mm 4 mps 748 mmHg 67%
    16:00 +12°C° 0.2 mm 4 mps 748 mmHg 72%
    17:00 +12°C° 0.2 mm 3 mps 748 mmHg 78%
    18:00 +11°C° 0 mm 3 mps 748 mmHg 81%
    19:00 +10°C° 0 mm 3 mps 748 mmHg 85%
    20:00 +9°C° 0 mm 3 mps 748 mmHg 88%
    21:00 +9°C° 0 mm 3 mps 748 mmHg 89%
    22:00 +9°C° 0 mm 3 mps 748 mmHg 90%
    23:00 +8°C° 0 mm 3 mps 748 mmHg 90%

    Day after tomorrow, 24 September, Monday

    Time Temperature Precipitation Wind Pressure Humidity
    00:00 +8°C° 0 mm 3 mps 748 mmHg 92%
    01:00 +8°C° 0 mm 3 mps 748 mmHg 93%
    02:00 +7°C° 0 mm 3 mps 748 mmHg 95%
    03:00 +7°C° 0 mm 3 mps 748 mmHg 95%
    04:00 +7°C° 0 mm 3 mps 747 mmHg 96%
    05:00 +6°C° 0 mm 2 mps 747 mmHg 97%
    06:00 +7°C° 0 mm 2 mps 747 mmHg 94%
    07:00 +8°C° 0 mm 2 mps 747 mmHg 92%
    08:00 +8°C° 0 mm 2 mps 747 mmHg 89%
    09:00 +10°C° 0 mm 1 mps 747 mmHg 85%
    10:00 +11°C° 0 mm 1 mps 746 mmHg 80%
    11:00 +13°C° 0 mm 1 mps 746 mmHg 76%
    12:00 +12°C° 0.3 mm 1 mps 745 mmHg 78%
    13:00 +12°C° 0.3 mm 2 mps 745 mmHg 81%
    14:00 +11°C° 0.3 mm 3 mps 744 mmHg 84%
    15:00 +10°C° 0.9 mm 3 mps 744 mmHg 86%
    16:00 +10°C° 0.9 mm 4 mps 743 mmHg 88%
    17:00 +8°C° 0.9 mm 4 mps 742 mmHg 90%
    18:00 +8°C° 1.2 mm 4 mps 742 mmHg 91%
    19:00 +8°C° 1.2 mm 5 mps 742 mmHg 91%
    20:00 +7°C° 1.2 mm 6 mps 741 mmHg 92%
    21:00 +7°C° 1 mm 6 mps 741 mmHg 91%
    22:00 +6°C° 1 mm 7 mps 741 mmHg 90%
    23:00 +6°C° 1 mm 7 mps 741 mmHg 89%

    25 September, Tuesday

    Time Temperature Precipitation Wind Pressure Humidity
    00:00 +6°C° 0.7 mm 7 mps 741 mmHg 88%
    01:00 +5°C° 0.7 mm 7 mps 741 mmHg 87%
    02:00 +5°C° 0.7 mm 7 mps 742 mmHg 85%
    03:00 +5°C° 0.2 mm 7 mps 742 mmHg 85%
    04:00 +4°C° 0.2 mm 7 mps 743 mmHg 84%
    05:00 +4°C° 0.2 mm 7 mps 743 mmHg 83%
    06:00 +4°C° 0.1 mm 7 mps 744 mmHg 82%
    07:00 +4°C° 0.1 mm 7 mps 744 mmHg 81%
    08:00 +5°C° 0.1 mm 7 mps 745 mmHg 80%
    09:00 +5°C° 0.1 mm 7 mps 746 mmHg 74%
    10:00 +6°C° 0.1 mm 7 mps 746 mmHg 68%
    11:00 +6°C° 0.1 mm 7 mps 747 mmHg 63%
    12:00 +8°C° 0 mm 7 mps 748 mmHg 59%
    13:00 +8°C° 0 mm 7 mps 748 mmHg 55%
    14:00 +9°C° 0 mm 7 mps 749 mmHg 51%
    15:00 +8°C° 0 mm 7 mps 749 mmHg 53%
    16:00 +7°C° 0 mm 6 mps 750 mmHg 56%
    17:00 +7°C° 0 mm 5 mps 750 mmHg 58%
    18:00 +6°C° 0 mm 5 mps 750 mmHg 60%
    19:00 +5°C° 0 mm 4 mps 751 mmHg 62%
    20:00 +4°C° 0 mm 4 mps 751 mmHg 64%
    21:00 +3°C° 0 mm 3 mps 751 mmHg 67%
    22:00 +3°C° 0 mm 3 mps 751 mmHg 70%
    23:00 +2°C° 0 mm 3 mps 751 mmHg 73%

    26 September, Wednesday

    Time Temperature Precipitation Wind Pressure Humidity
    00:00 +3°C° 0 mm 2 mps 751 mmHg 77%
    01:00 +2°C° 0 mm 2 mps 751 mmHg 81%
    02:00 +2°C° 0 mm 2 mps 751 mmHg 86%
    03:00 +3°C° 0 mm 1 mps 752 mmHg 87%
    04:00 +3°C° 0 mm 1 mps 752 mmHg 88%
    05:00 +3°C° 0 mm 1 mps 752 mmHg 90%
    06:00 +4°C° 0 mm 1 mps 753 mmHg 84%
    07:00 +5°C° 0 mm 1 mps 753 mmHg 78%
    08:00 +5°C° 0 mm 2 mps 754 mmHg 71%
    09:00 +6°C° 0 mm 2 mps 754 mmHg 63%
    10:00 +7°C° 0 mm 2 mps 755 mmHg 55%
    11:00 +9°C° 0 mm 2 mps 756 mmHg 46%
    12:00 +9°C° 0 mm 3 mps 756 mmHg 44%
    13:00 +10°C° 0 mm 3 mps 756 mmHg 42%
    14:00 +10°C° 0 mm 3 mps 757 mmHg 40%
    15:00 +9°C° 0 mm 2 mps 757 mmHg 46%
    16:00 +8°C° 0 mm 2 mps 757 mmHg 52%
    17:00 +9°C° 0 mm 1 mps 757 mmHg 57%
    18:00 +7°C° 0 mm 1 mps 758 mmHg 61%
    19:00 +6°C° 0 mm 1 mps 758 mmHg 65%
    20:00 +5°C° 0 mm 1 mps 758 mmHg 69%
    21:00 +4°C° 0 mm 2 mps 758 mmHg 72%
    22:00 +4°C° 0 mm 2 mps 758 mmHg 76%
    23:00 +5°C° 0 mm 2 mps 758 mmHg 80%

    27 September, Thursday

    Time Temperature Precipitation Wind Pressure Humidity
    00:00 +4°C° 0 mm 3 mps 758 mmHg 81%
    01:00 +4°C° 0 mm 3 mps 757 mmHg 82%
    02:00 +5°C° 0 mm 4 mps 757 mmHg 82%
    03:00 +5°C° 0 mm 4 mps 756 mmHg 81%
    04:00 +6°C° 0 mm 5 mps 755 mmHg 79%
    05:00 +6°C° 0 mm 5 mps 754 mmHg 77%
    06:00 +5°C° 0.6 mm 6 mps 753 mmHg 81%
    07:00 +7°C° 0.6 mm 6 mps 753 mmHg 84%
    08:00 +6°C° 0.6 mm 7 mps 752 mmHg 88%
    09:00 +6°C° 1.9 mm 7 mps 751 mmHg 89%
    10:00 +8°C° 1.9 mm 7 mps 750 mmHg 90%
    11:00 +8°C° 1.9 mm 7 mps 749 mmHg 91%
    12:00 +9°C° 0.9 mm 7 mps 749 mmHg 90%
    13:00 +9°C° 0.9 mm 7 mps 748 mmHg 90%
    14:00 +10°C° 0.9 mm 7 mps 747 mmHg 90%
    15:00 +10°C° 0.5 mm 7 mps 747 mmHg 90%
    16:00 +10°C° 0.5 mm 7 mps 747 mmHg 90%
    17:00 +10°C° 0.5 mm 7 mps 746 mmHg 90%
    18:00 +10°C° 0.3 mm 7 mps 746 mmHg 90%
    19:00 +10°C° 0.3 mm 7 mps 746 mmHg 90%
    20:00 +10°C° 0.3 mm 7 mps 746 mmHg 90%
    21:00 +10°C° 0.7 mm 6 mps 746 mmHg 91%
    22:00 +10°C° 0.7 mm 5 mps 746 mmHg 91%
    23:00 +10°C° 0.7 mm 5 mps 745 mmHg 92%
    Show more